Location: *
(46.0770°N, 1.6444°E)
Time: 19:23:07
(UTC+00:00)

Lacrosse 4 Rocket - Pass Details

Date: 16 September 2019
Orbit: 544 x 615 km, 68.0° (Epoch: 22 October)

Event Time Altitude Azimuth Distance (km) Brightness Sun altitude
Rises 19:14:59 0° 311° (NW) 2,724 6.2 -13.0°
Reaches altitude 10° 19:18:04 10° 286° (WNW) 1,818 5.5 -13.5°
Maximum altitude 19:20:12 14° 254° (WSW) 1,567 4.5 -13.8°
Drops below altitude 10° 19:22:20 10° 222° (SW) 1,807 4.2 -14.2°
Sets 19:25:23 0° 197° (SSW) 2,695 4.8 -14.7°
